Flag for Ecuador Weather past 2 weeks in Cuenca, Ecuador

Now
75 °F

Passing clouds.


Feels Like: 75 °F
Forecast: 45 / 66 °F
Wind: 9 mph from Southwest

Location: Guayaquil / Simon Bolivar

Current Time: Jan 29, 2015 at 5:36:25 AM

Latest Report: Jan 29, 2015 at 4:00 AM


Visibility: N/A

Pressure: 29.74 "Hg

Humidity: 83%

Dew point: 70 °F

Location of CuencaLocation

Historic Weather in Cuenca — Graph

°F

Cuenca temperature yesterday

Maximum temperature yesterday: 88 °F (at 6:00 PM)
Minimum temperature yesterday: 75 °F (at 4:00 AM)
Average temperature yesterday: 82 °F

Past Weeks' High & Low Weather Summary

 TemperatureHumidityPressure
High93 °F (Jan 14, 5:00 PM)100% (Jan 16, 10:00 PM)29.95 "Hg (Jan 16, 10:00 PM)
Low72 °F (Jan 21, 4:00 AM)22% (Jan 29, 12:00 AM)29.68 "Hg (Jan 25, 3:00 PM)
Average81 °F71%29.84 "Hg
* Reported Jan 14 4:00 AM — Jan 29 4:00 AM, Cuenca, Weather by CustomWeather, © 2014

Note: Actual official high and low records may vary slightly from our data, if they occured in-between our weather recording intervals... More about our weather records

Advertising

Cuenca weather history for previous 24 hours

 ConditionsComfort  
Time TempWeatherWind HumidityBarometerVisibility
4:00 AM
Jan 29
75 °FPassing clouds.9 mph83%29.74 "HgN/A
3:00 AM75 °FPartly cloudy.10 mph83%29.77 "HgN/A
1:00 AM75 °FLight rain. Mostly cloudy.8 mph83%29.80 "Hg5 mi
12:00 AM75 °FRain. Overcast.10 mph22%29.80 "Hg2 mi
11:00 PM
Jan 28
79 °FPassing clouds.9 mph70%29.80 "HgN/A
10:00 PM81 °FPassing clouds.7 mph66%29.80 "HgN/A
7:00 PM82 °FPassing clouds.13 mph70%29.71 "HgN/A
6:00 PM88 °FScattered clouds.2 mph55%29.68 "HgN/A
4:00 PM86 °FBroken clouds.3 mph59%29.68 "HgN/A
3:00 PM86 °FBroken clouds.3 mph59%29.71 "HgN/A
2:00 PM86 °FBroken clouds.5 mph59%29.74 "HgN/A
1:00 PM86 °FBroken clouds.3 mph59%29.77 "HgN/A
12:00 PM86 °FScattered clouds.3 mph62%29.80 "HgN/A
11:00 AM84 °FBroken clouds.3 mph66%29.80 "HgN/A
10:00 AM81 °FBroken clouds.2 mph74%29.83 "HgN/A
9:00 AM81 °FScattered clouds.2 mph74%29.83 "HgN/A
8:00 AM79 °FPassing clouds.1 mph79%29.83 "HgN/A
7:00 AM75 °FScattered clouds.No wind83%29.80 "HgN/A
5:00 AM75 °FPassing clouds.3 mph83%29.80 "HgN/A
Weather by CustomWeather, © 2014

See weather overviewHow to use our weather pages